Погода Дно

Погода Дно : погода сейчас, прогноз погоды и архив. Всё, что Вы хотите узнать о погоде Дно!

Поиск расширенной информации на нашем сайте:

Другие новости

Новости СМИ2

Главная страница сайта

Новости сайта

03.07.2017

Напоминаем, что на нашем специализированном сайте Метеоцентр.Азия вы можете получить высокодетализированные автоматические прогнозы погоды по пунктам России, СНГ и мира в авиационном формате (включающие направление и скорость ветра, видимость, явления погоды, количество и форму облачности, нижнюю и верхнюю границу облачности).

Рекомендуем: котлеты кулинарные рецепты

Погода Дно - сегодня

Время (UTC), дата Ветер
(°,м/с) 
Видим.   Явления Облачность Т
(°С)
Тd
(°С)
f(%) Тe
(°С)
Pmin
(гПа)
dP
(гПа)
Po
(мм)
O2
(г/м3)
Тmin Tmax R s Состояние
почвы
09 16.08.17 130 (ЮВ) н/о    н/о 
+22.5 +13.2 56 +28  1026.1  -0.3  764  282           
12 16.08.17 100 (В) н/о    н/о 
+23.2 +11.1 46 +25  1025  -1  763  281           
15 16.08.17 140 (ЮВ) н/о    н/о 
+22.8 +12 51 +26  1024  -1  762  281           
18 16.08.17 110 (В) 20000 м    9/0 средняя 
[Ac trans]
+17.1 +13.4 79 +25  1023.5  -0.6  762  286    +24.2       
21 16.08.17 120 (ЮВ) н/о    н/о 
+17 +12.8 76 +23  1023.6  762  287           
00 17.08.17 080 (В) н/о    н/о 
+13.3 +12.5 95 +19  1023.1  -0.5  761  290           
03 17.08.17 120 (ЮВ) н/о    н/о 
+14.5 +13.1 91 +21  1022.2  -0.9  761  289  +13.3         
06 17.08.17 150 (ЮВ) 20000 м    4/0 средняя 
[Ac trans]
+20 +15.6 76 +29  1021.8  -0.3  761  282  +13.3        влажная 
09 17.08.17 160 (Ю) н/о    н/о 
+23.8 +16.9 65 +36  1021.2  -0.5  760  278           
12 17.08.17 160 (Ю) н/о    н/о 
+25.6 +17.5 61 +39  1020.4  -0.7  760  276           
15 17.08.17 170 (Ю) н/о    н/о 
+24.6 +17.8 66 +38  1019.7  -0.7  759  277           
18 17.08.17 140 (ЮВ) 20000 м    8/3 600 м верхняя 
[Sc diur, vesp|Ci]
+20 +18.2 89 +34  1019.9  759  281    +26.1       
21 17.08.17 150 (ЮВ) н/о    н/о 
+19.8 +18.3 91 +36  1019.8  0.1  759  281           
00 18.08.17 150 (ЮВ) н/о    н/о 
+18 +17.5 97 +32  1019.3  -0.5  759  283           
03 18.08.17 160 (Ю) н/о    н/о 
+17.6 +17.3 98 +32  1019  -0.3  758  283  +17.2         
06 18.08.17 200 (Ю) 20000 м    4/4 600 м 
[Cu med, cong]
+19.8 +18.1 90 +35  1019.4  0.5  759  281  +16.7      влажная 
09 18.08.17 220 (ЮЗ) н/о    н/о 
+20.7 +15.1 70 +29  1019.4  759  281           
12 18.08.17 190 (Ю) н/о    н/о 
+24.1 +12.7 49 +29  1018.5  -0.8  758  278           
15 18.08.17 130 (ЮВ) н/о    н/о 
+23.5 +15.7 62 +33  1016.9  -1.6  757  278           
18 18.08.17 170 (Ю) 1{17}  20000 м  гроза без осадков  10/10 600 м кучево-дожд. 
[Cb cap]
+19.3 +18.5 95 +36  1016.5  -0.5  757  280    +24.5  0.3     
21 18.08.17 170 (Ю) н/о    н/о 
+18 +17.8 99 +33  1016.5  0.1  757  282           
00 19.08.17 тихо ()   н/о    н/о 
+15.9 +15.7 99 +26  1016.7  0.2  757  285           
03 19.08.17 150 (ЮВ) н/о    н/о 
+16.9 +16.7 99 +30  1016.3  -0.3  756  283  +13.3         
06 19.08.17 130 (ЮВ) 4000 м  дымка  8/0 средняя, верхняя 
[Ac trans|Cs]
+20.3 +18.4 89 +35  1015.7  -0.5  756  279  +13.3      влажная 
09 19.08.17 150 (ЮВ) н/о    н/о 
+25.9 +18.5 64 +41  1014.6  -1  755  274           
Время (UTC), дата Ветер
(°,м/с) 
Видим.   Явления Облачность Т
(°С)
Тd
(°С)
f(%) Тe
(°С)
Pmin
(гПа)
dP
(гПа)
Po
(мм)
O2
(г/м3)
Тmin Tmax R s Состояние
почвы

Для получения пояснительной информации подведите курсор к названию столбца.

ПОГОДА Дно - архив

Всё, что Вы хотите узнать о погоде Дно - удобно и подробно!

Выберите нужную дату (начиная с 1 января 2015* года) и нажмите кнопку "Найти".
Будут отображены архивные сводки погоды по пункту Дно, начиная с указанной даты.


Отображать данные в формате CSV (для использования в таблицах Excel)


Внимание! Наш архив погоды предназначен исключительно для личного некоммерческого использования в познавательных целях. Если Вам необходимы официальные справки о состоянии погоды (для производственных, юридических, коммерческих и т.п. целей), обращайтесь в органы Росгидромета.

*Примечание: данная дата относится к архиву по метеостанциям СССР (Россия, СНГ, Балтия).
Архив по метеостанциям Зарубежной Европы и Азии (кроме Китая) хранится 10 дней, по другим регионам земного шара (Китай, Африка, Америка, Австралия, Океания) - 1 день.

Дно - район местоположения метеостанции


Название, широта, долгота, высота метеостанции:
Дно 57.8°ш. 29.9°д. 71 м над ур. моря [Российская Федерация]

Дополнительная информация

В oтличие oт бoльшинства пoгoдных сайтoв мы публикуем пoдрoбную метеoинфoрмацию в детальнoм прoфессиoнальнoм фoрмате.

Характеристики температуры и влажнoсти вoздуха измеряются на высoте 2 м в тени вдали oт зданий и деревьев.
Скoрoсть ветра измеряется на высoте 10 м (на урoвне рoста челoвека скoрoсть ветра ниже в 1.5-2 раза). Если метеoстанция нахoдится в гoрoде или в лесу, тo скoрoсть ветра занижена на 2-4 м/с пo сравнению с oткрытым местoм. Скoрoсть ветра над акватoриями крупных рек и oзёр, а также на вершинах хoлмoв на 2-5 м/с выше, чем в oбычных услoвиях.
Атмoсфернoе давление в разных тoчках местнoсти мoжет значительнo oтличаться oт давления на метеoстанции, в зависимoсти oт услoвий рельефа (при пoдъёме на 10 м давление пoнижается примернo на 1 мм рт.ст.).